Starlink 34352

operational
NORAD ID: 64257 Int'l Des: 2025-120 Owner: SPXS Country: US Constellation: starlink
LEOCIRCULAR

About Starlink 34352

Description loading...

Live Position

Loading 3D Globe...

Upcoming Passes

Altitude History

Altitude vs Time

uPlot chart will show altitude changes over time

Two-Line Element Set

1 64257U 25120B 25261.05024515 .00024392 00000-0 83252-3 0 9995
2 64257 53.1573 198.6358 0001352 125.2052 234.9076 15.30217664 17439
Epoch: Sep 18, 2025 • Age: 23 hours

Current Status

Altitude 486.2 km
Velocity 7.62 km/s
Sub-Earth Point -32.80°S, 159.24°E
Launch Date Jun 4, 2025
Age 0.2 years
Type internet

Technical Details

Classification Payload
Mass 575.00 kg
Dry Mass 530.00 kg
Total Mass 575.00 kg
Length 0.30 m
Diameter 4.10 m
Span 29.00 m
Shape Box + pan
Manufacturer SPXS
Bus Type Starlink V2MO
Phase Status In Orbit
Owner/State SPXS/US

Large Constellations

Loading constellations...